Temporada 2026 · Etapa 3

Japanese Grand Prix

2026-03-29 · Suzuka Circuito · Japan · Japanese Grand Prix · 53Lap · 307.471km
Mercedes 1:28:03.403
Vitória de equipa 37pt P1 · P4
McLaren +13.722
Ferrari +15.270
Volta mais rápida
1:32.432 · L49
Abandono
2
Lance Stroll L30 Oliver Bearman L20
Clima
19°/34°
média ar/pista · seco · humidade 52%
Safety car
1
acionado na volta L22
Uso de pneus Direção de prova
Storylines · This Grand Prix & circuit
Mais vitórias neste GP
Michael Schumacher 6 vitórias
Lewis Hamilton ativo 5 vitórias
Sebastian Vettel 4 vitórias
Conversão pole-vitória 20/36 55.6%
Most SC/VSC · all-time P14
Chegada mais apertada · all-time P27
Most lead changes · all-time P1
Circuito Info
Suzuka Circuito Suzuka, Japan
53Lap 307.471km 36 corridas held (1987–) Recorde de volta 1:30.965 · Andrea Kimi Antonelli (2025)
Recordes Watch · Active drivers ranked at this Grand Prix
Corrida Trace · position by lap
SC · voltas 22–27 largada parada SG 1 5 9 13 17 21 25 29 33 37 41 45 49 53 Antonelli · parada nos boxes L22 Antonelli ANT Antonelli ANT Piastri · parada nos boxes L18 Piastri PIA Piastri PIA Leclerc · parada nos boxes L17 Leclerc LEC Leclerc LEC Russell · parada nos boxes L21 Russell RUS Russell RUS Norris · parada nos boxes L16 Norris NOR Norris NOR Hamilton · parada nos boxes L22 Hamilton HAM Hamilton HAM Gasly · parada nos boxes L22 Gasly GAS Gasly GAS Verstappen · parada nos boxes L22 Verstappen VER Verstappen VER Lawson · parada nos boxes L22 Lawson LAW Lawson LAW Ocon · parada nos boxes L19 Ocon OCO Ocon OCO Hülkenberg · parada nos boxes L23 Hülkenberg HUL Hülkenberg HUL Hadjar · parada nos boxes L19 Hadjar HAD Hadjar HAD Bortoleto · parada nos boxes L22 Bortoleto BOR Bortoleto BOR Lindblad · parada nos boxes L18 Lindblad LIN Lindblad LIN Sainz · parada nos boxes L22 Sainz SAI Sainz SAI Colapinto · parada nos boxes L17 Colapinto COL Colapinto COL Pérez · parada nos boxes L21 Pérez PER Pérez PER Alonso · parada nos boxes L21 Alonso · parada nos boxes L23 Alonso ALO Alonso ALO Bottas · parada nos boxes L19 Bottas BOT Bottas BOT Albon · parada nos boxes L22 Albon · parada nos boxes L45 Albon · parada nos boxes L47 Albon · parada nos boxes L49 Albon ALB Albon ALB Stroll · parada nos boxes L21 Stroll · parada nos boxes L24 Stroll · abandono L30 Stroll STR Stroll STR Bearman · parada nos boxes L16 Bearman · abandono L20 Bearman BEA Bearman BEA
SC·VSC parada nos boxes punição cumprida nos boxes SG Grelha de partida carro parado posição em cada volta (desde 1996)
PosPilotoTeamGrelhaVoltaTempo / StatusPontos
1 12 Andrea Kimi Antonelli FL Mercedes 1 53 1:28:03.403 25
2 81 Oscar Piastri McLaren 3 53 +13.722 18
3 16 Charles Leclerc Ferrari 4 53 +15.270 15
4 63 George Russell Mercedes 2 53 +15.754 12
5 1 Lando Norris McLaren 5 53 +23.479 10
6 44 Lewis Hamilton Ferrari 6 53 +25.037 8
7 10 Pierre Gasly Alpine F1 Team 7 53 +32.340 6
8 3 Max Verstappen Red Bull 11 53 +32.677 4
9 30 Liam Lawson RB F1 Team 14 53 +50.180 2
10 31 Esteban Ocon Haas F1 Team 12 53 +51.216 1
11 27 Nico Hülkenberg Audi 13 53 +52.280
12 6 Isack Hadjar Red Bull 8 53 +56.154
13 5 Gabriel Bortoleto Audi 9 53 +59.078
14 41 Arvid Lindblad RB F1 Team 10 53 +59.848
15 55 Carlos Sainz Williams 16 53 +1:05.008
16 43 Franco Colapinto Alpine F1 Team 15 53 +1:05.773
17 11 Sergio Pérez Cadillac F1 Team 19 53 +1:32.453
18 14 Fernando Alonso Aston Martin 21 52 +26.548
19 77 Valtteri Bottas Cadillac F1 Team 20 52 +42.621
20 23 Alexander Albon Williams 17 51 +5.067
R 18 Lance Stroll Aston Martin 22 30 Retired
R 87 Oliver Bearman Haas F1 Team 18 20 Retired
PosPilotoTeamQ1Q2Q3Diferença para a pole
1 12 Andrea Kimi Antonelli Mercedes 1:30.035 1:29.048 1:28.778 POLE Q3
2 63 George Russell Mercedes 1:29.967 1:29.686 1:29.076 +0.298 Q3
3 81 Oscar Piastri McLaren 1:30.200 1:29.451 1:29.132 +0.354 Q3
4 16 Charles Leclerc Ferrari 1:29.915 1:29.303 1:29.405 +0.525 Q2
5 1 Lando Norris McLaren 1:30.401 1:29.795 1:29.409 +0.631 Q3
6 44 Lewis Hamilton Ferrari 1:30.309 1:29.589 1:29.567 +0.789 Q3
7 10 Pierre Gasly Alpine F1 Team 1:30.584 1:29.874 1:29.691 +0.913 Q3
8 6 Isack Hadjar Red Bull 1:30.662 1:30.104 1:29.978 +1.200 Q3
9 5 Gabriel Bortoleto Audi 1:30.359 1:29.990 1:30.274 +1.212 Q2
10 41 Arvid Lindblad RB F1 Team 1:30.781 1:30.109 1:30.319 +1.331 Q2
11 3 Max Verstappen Red Bull 1:30.519 1:30.262 +1.484 Q2
12 31 Esteban Ocon Haas F1 Team 1:30.915 1:30.309 +1.531 Q2
13 27 Nico Hülkenberg Audi 1:30.358 1:30.387 +1.580 Q1
14 30 Liam Lawson RB F1 Team 1:30.657 1:30.495 +1.717 Q2
15 43 Franco Colapinto Alpine F1 Team 1:30.931 1:30.627 +1.849 Q2
16 55 Carlos Sainz Williams 1:30.927 1:31.033 +2.149 Q1
17 23 Alexander Albon Williams 1:31.088 +2.310 Q1
18 87 Oliver Bearman Haas F1 Team 1:31.090 +2.312 Q1
19 11 Sergio Pérez Cadillac F1 Team 1:32.206 +3.428 Q1
20 77 Valtteri Bottas Cadillac F1 Team 1:32.330 +3.552 Q1
21 14 Fernando Alonso Aston Martin 1:32.646 +3.868 Q1
22 18 Lance Stroll Aston Martin 1:32.920 +4.142 Q1
Grelha de partida
Oficial
Final grid as classificado, including any saída dos boxes largadas. Source: Jolpica-F1. The arrow compares the grid slot with the a qualificação classification; hover a drop to see the stewards document behind it.
Agendado: aparece depois de a classificação para a sprint terminar.
PosPilotoMelhor voltaDiferençaVoltas
1 63 George Russell 1:31.666 26
2 12 Andrea Kimi Antonelli 1:31.692 +0.026 25
3 1 Lando Norris 1:31.798 +0.132 20
4 81 Oscar Piastri 1:31.865 +0.199 23
5 16 Charles Leclerc 1:31.955 +0.289 25
6 44 Lewis Hamilton 1:32.040 +0.374 23
7 3 Max Verstappen 1:32.457 +0.791 26
8 30 Liam Lawson 1:32.529 +0.863 27
9 31 Esteban Ocon 1:32.601 +0.935 23
10 41 Arvid Lindblad 1:32.665 +0.999 29
11 5 Gabriel Bortoleto 1:32.759 +1.093 27
12 27 Nico Hülkenberg 1:32.798 +1.132 26
13 6 Isack Hadjar 1:32.803 +1.137 26
14 87 Oliver Bearman 1:32.900 +1.234 27
15 10 Pierre Gasly 1:32.978 +1.312 25
16 43 Franco Colapinto 1:33.361 +1.695 24
17 55 Carlos Sainz 1:33.383 +1.717 26
18 23 Alexander Albon 1:33.697 +2.031 22
19 11 Sergio Pérez 1:34.221 +2.555 18
20 77 Valtteri Bottas 1:34.490 +2.824 24
21 18 Lance Stroll 1:35.294 +3.628 22
Classified by best lap · source OpenF1 (2023+)
PosPilotoMelhor voltaDiferençaVoltas
1 81 Oscar Piastri 1:30.133 29
2 12 Andrea Kimi Antonelli 1:30.225 +0.092 28
3 63 George Russell 1:30.338 +0.205 29
4 1 Lando Norris 1:30.649 +0.516 17
5 16 Charles Leclerc 1:30.846 +0.713 28
6 44 Lewis Hamilton 1:30.980 +0.847 27
7 27 Nico Hülkenberg 1:31.441 +1.308 27
8 23 Alexander Albon 1:31.496 +1.363 30
9 87 Oliver Bearman 1:31.498 +1.365 28
10 3 Max Verstappen 1:31.509 +1.376 29
11 31 Esteban Ocon 1:31.532 +1.399 30
12 30 Liam Lawson 1:31.590 +1.457 30
13 55 Carlos Sainz 1:31.608 +1.475 30
14 10 Pierre Gasly 1:31.734 +1.601 29
15 6 Isack Hadjar 1:31.759 +1.626 29
16 5 Gabriel Bortoleto 1:31.933 +1.800 11
17 43 Franco Colapinto 1:32.438 +2.305 28
18 77 Valtteri Bottas 1:32.615 +2.482 28
19 14 Fernando Alonso 1:33.596 +3.463 24
20 11 Sergio Pérez 1:33.689 +3.556 14
21 18 Lance Stroll 1:33.951 +3.818 21
22 41 Arvid Lindblad 1
Classified by best lap · source OpenF1 (2023+)
PosPilotoMelhor voltaDiferençaVoltas
1 12 Andrea Kimi Antonelli 1:29.362 18
2 63 George Russell 1:29.616 +0.254 18
3 16 Charles Leclerc 1:30.229 +0.867 20
4 81 Oscar Piastri 1:30.364 +1.002 19
5 44 Lewis Hamilton 1:30.383 +1.021 23
6 1 Lando Norris 1:30.600 +1.238 13
7 27 Nico Hülkenberg 1:30.658 +1.296 21
8 3 Max Verstappen 1:30.910 +1.548 22
9 5 Gabriel Bortoleto 1:31.000 +1.638 21
10 10 Pierre Gasly 1:31.082 +1.720 20
11 6 Isack Hadjar 1:31.094 +1.732 21
12 30 Liam Lawson 1:31.097 +1.735 21
13 41 Arvid Lindblad 1:31.288 +1.926 17
14 31 Esteban Ocon 1:31.326 +1.964 22
15 87 Oliver Bearman 1:31.558 +2.196 18
16 23 Alexander Albon 1:31.733 +2.371 20
17 43 Franco Colapinto 1:31.759 +2.397 25
18 55 Carlos Sainz 1:31.829 +2.467 26
19 77 Valtteri Bottas 1:32.503 +3.141 20
20 11 Sergio Pérez 1:32.540 +3.178 18
21 18 Lance Stroll 1:33.485 +4.123 19
22 14 Fernando Alonso 1:33.529 +4.167 14
Classified by best lap · source OpenF1 (2023+)
#PilotoTempo de voltaVolta
1 12 Andrea Kimi Antonelli 1:32.432 L49
2 12 Andrea Kimi Antonelli 1:32.538 L43
3 63 George Russell 1:32.549 L53
4 12 Andrea Kimi Antonelli 1:32.570 L44
5 16 Charles Leclerc 1:32.634 L53
6 12 Andrea Kimi Antonelli 1:32.722 L46
7 12 Andrea Kimi Antonelli 1:32.731 L39
8 12 Andrea Kimi Antonelli 1:32.736 L41
9 44 Lewis Hamilton 1:32.777 L48
10 12 Andrea Kimi Antonelli 1:32.819 L45
Top 10 mais rápida race voltas — #1 is the mais rápida lap of a corrida(FL).
Pit stops · como se comparam
24s 26s mediana 24.3s Lewis Hamilton · L22 · 22.891s George Russell · L21 · 22.937s Charles Leclerc · L17 · 22.992s Alexander Albon · L45 · 23.072s Andrea Kimi Antonelli · L22 · 23.288s Lando Norris · L16 · 23.316s Oscar Piastri · L18 · 23.444s Lance Stroll · L24 · 23.501s Franco Colapinto · L17 · 23.649s Isack Hadjar · L19 · 23.698s Nico Hülkenberg · L23 · 23.999s Fernando Alonso · L23 · 24.014s Liam Lawson · L22 · 24.165s Pierre Gasly · L22 · 24.304s Alexander Albon · L49 · 24.337s Carlos Sainz · L22 · 24.396s Max Verstappen · L22 · 24.490s Alexander Albon · L22 · 24.600s Esteban Ocon · L19 · 24.629s Gabriel Bortoleto · L22 · 24.630s Oliver Bearman · L16 · 25.081s Lance Stroll · L21 · 25.083s Valtteri Bottas · L19 · 25.129s Alexander Albon · L47 · 26.053s Arvid Lindblad · L18 · 26.335s Fernando Alonso · L21 · 26.458s Sergio Pérez · L21 · 27.307s
mais rápida 22.891s Lewis Hamilton mais lenta 27.307s Sergio Pérez tempo de passagem pelos boxes — um ponto por paragem
PilotoParagemVoltaTempoPassagem pela saída dos boxes
87 Oliver Bearman 1 16 14:39:59 25.081s
1 Lando Norris 1 16 14:39:31 23.316s
16 Charles Leclerc 1 17 14:41:04 22.992s
43 Franco Colapinto 1 17 14:41:34 23.649s
41 Arvid Lindblad 1 18 14:43:08 26.335s
81 Oscar Piastri 1 18 14:42:34 23.444s
6 Isack Hadjar 1 19 14:44:44 23.698s
77 Valtteri Bottas 1 19 14:45:33 25.129s
31 Esteban Ocon 1 19 14:44:42 24.629s
14 Fernando Alonso 1 21 14:48:57 26.458s
11 Sergio Pérez 1 21 14:48:37 27.307s
63 George Russell 1 21 14:47:19 22.937s
18 Lance Stroll 1 21 14:48:49 25.083s
55 Carlos Sainz 1 22 14:50:11 24.396s
30 Liam Lawson 1 22 14:50:03 24.165s
44 Lewis Hamilton 1 22 14:49:21 22.891s
3 Max Verstappen 1 22 14:49:41 24.490s
23 Alexander Albon 1 22 14:50:19 24.600s
10 Pierre Gasly 1 22 14:49:37 24.304s
5 Gabriel Bortoleto 1 22 14:50:04 24.630s
12 Andrea Kimi Antonelli 1 22 14:49:12 23.288s
27 Nico Hülkenberg 1 23 14:52:12 23.999s
14 Fernando Alonso 2 23 14:53:15 24.014s
18 Lance Stroll 2 24 14:54:49 23.501s
23 Alexander Albon 2 45 15:30:35 23.072s
23 Alexander Albon 4 47 15:34:30 26.053s
23 Alexander Albon 6 49 15:38:36 24.337s
paragens
SG 10 20 30 40 L53
12
1
M21
H32
81
1
M17
H36
16
1
M16
H37
63
1
M20
H33
1
1
M15
H38
44
1
M21
H32
10
1
M21
H32
3
1
M21
H32
30
1
M21
H32
31
1
M18
H35
27
1
M22
H31
6
1
M18
H35
5
1
M21
H32
41
1
M17
H36
55
1
M21
H32
43
1
M16
H37
11
1
M20
H33
14
2
M20
M2
M30
77
1
H18
M34
23
4
M21
H23
H4
M3
18
2
M20
H3
M7
87
1
M15
H5
S Soft M Medium H Hard I Intermediate W Wet SC·VSC parada nos boxes punição cumprida nos boxes
Corrida · largura da barra = voltas com esse jogo, ·+N = montado usado com N voltas prévias · fonte OpenF1 (2023+)
Compostos indicados para este Grande Prémio
C1 Duro C2 Médio C3 Macio
A Pirelli indica três dos seus compostos secos para cada prova; quanto maior o número C, mais macio é o pneu. Documento da FIA ↗
Mais posições ganhas em pista
27
+13
P13→P11
63
+8
P2→P4
12
+6
P1→P1
16
+6
P4→P3
44
+6
P6→P6
3
+6
P11→P8
31
+6
P12→P10
5
+6
P9→P13
Mais posições perdidas
Isack Hadjar −9 Arvid Lindblad −9 George Russell −8
Corrida · Soma das posições ganhas em pista volta a volta — excluem-se a volta de largada e as voltas de boxes do próprio piloto. Dados de voltas de corrida desde 1996.
PilotoTipoVoltaCumpridaAplicadaMotivo
44 Lewis Hamilton No further action Incident between Cars 44 and 3 between turns 14 and 15. (No further action.) Doc 26 ↗
Incident between Cars 44 and 3 between turns 14 and 15. (No further action.) Doc 26 ↗
23 Alexander Albon No further action A collision occurred between Cars 23 and 11 at turn 16. (No further action.) Doc 25 ↗
A collision occurred between Cars 23 and 11 at turn 16. (No further action.) Doc 25 ↗
30 Liam Lawson No further action Car 55 was travelling slowly ahead of Car 30 at the exit of turn 11. (No further action.) Doc 23 ↗
Car 55 was travelling slowly ahead of Car 30 at the exit of turn 11. (No further action.) Doc 23 ↗
81 Oscar Piastri Black-and-white flag warning Car 81 impeded Car 27 into turn 15. (Piloto: Warning.) Doc 44 ↗
Car 81 impeded Car 27 into turn 15. (Piloto: Warning.) Doc 44 ↗
43 Franco Colapinto Black-and-white flag warning Car 43 impeded Car 3 into turn 15. (Piloto: Warning.) Doc 33 ↗
Car 43 impeded Car 3 into turn 15. (Piloto: Warning.) Doc 33 ↗
41 Arvid Lindblad Black-and-white flag warning 15 MOVING UNDER BRAKING
Volta 15 MOVING UNDER BRAKING
18 Lance Stroll Voltas deletadas 4 TRACK LIMITS
Volta 4 TRACK LIMITS
Volta = volta em que a punição foi aplicada · Cumprida = volta em que foi cumprida nos boxes (em branco: somada ao tempo de corrida)
Time, drive-through and stop-go penalties come from race control messages (OpenF1, 2023+). Grid penalties never appear there — the stewards publish them as documents after the session — so they are worked back from the starting grid against the a qualificação classification, which gives places actually lost rather than the figure written in the decision.
PilotoTipoVoltaCumpridaAplicadaMotivo
44 Lewis Hamilton Black-and-white flag warning DRIVING UNNECESSARILY SLOWLY IN PIT EXIT ROAD
DRIVING UNNECESSARILY SLOWLY IN PIT EXIT ROAD
Volta = volta em que a punição foi aplicada · Cumprida = volta em que foi cumprida nos boxes (em branco: somada ao tempo de corrida)
Time, drive-through and stop-go penalties come from race control messages (OpenF1, 2023+). Grid penalties never appear there — the stewards publish them as documents after the session — so they are worked back from the starting grid against the a qualificação classification, which gives places actually lost rather than the figure written in the decision.
PilotoTipoVoltaCumpridaAplicadaMotivo
11 Sergio Pérez Voltas deletadas TRACK LIMITS (NEXT LAP PIT)
TRACK LIMITS (NEXT LAP PIT)
63 George Russell Voltas deletadas DOUBLE YELLOW
DOUBLE YELLOW
12 Andrea Kimi Antonelli Voltas deletadas DOUBLE YELLOW
DOUBLE YELLOW
63 George Russell Voltas deletadas TRACK LIMITS
TRACK LIMITS
Volta = volta em que a punição foi aplicada · Cumprida = volta em que foi cumprida nos boxes (em branco: somada ao tempo de corrida)
Time, drive-through and stop-go penalties come from race control messages (OpenF1, 2023+). Grid penalties never appear there — the stewards publish them as documents after the session — so they are worked back from the starting grid against the a qualificação classification, which gives places actually lost rather than the figure written in the decision.
PilotoTipoVoltaCumpridaAplicadaMotivo
81 Oscar Piastri Voltas deletadas DOUBLE YELLOW
DOUBLE YELLOW
77 Valtteri Bottas Voltas deletadas DOUBLE YELLOW
DOUBLE YELLOW
1 Lando Norris Voltas deletadas TRACK LIMITS (PIT)
TRACK LIMITS (PIT)
Volta = volta em que a punição foi aplicada · Cumprida = volta em que foi cumprida nos boxes (em branco: somada ao tempo de corrida)
Time, drive-through and stop-go penalties come from race control messages (OpenF1, 2023+). Grid penalties never appear there — the stewards publish them as documents after the session — so they are worked back from the starting grid against the a qualificação classification, which gives places actually lost rather than the figure written in the decision.
PilotoTipoVoltaCumpridaAplicadaMotivo
23 Alexander Albon Voltas deletadas TRACK LIMITS (PIT)
TRACK LIMITS (PIT)
23 Alexander Albon Voltas deletadas TRACK LIMITS (PIT)
TRACK LIMITS (PIT)
11 Sergio Pérez Voltas deletadas TRACK LIMITS (PIT)
TRACK LIMITS (PIT)
Volta = volta em que a punição foi aplicada · Cumprida = volta em que foi cumprida nos boxes (em branco: somada ao tempo de corrida)
Time, drive-through and stop-go penalties come from race control messages (OpenF1, 2023+). Grid penalties never appear there — the stewards publish them as documents after the session — so they are worked back from the starting grid against the a qualificação classification, which gives places actually lost rather than the figure written in the decision.
DocTítuloAssuntoPublished(CET)
2 Competition Notes - Pirelli Preview ↗ 2026-03-25 08:47
2026-03-25 08:47 CET
3 Post-Corrida Checks on Car 16, 2026 Chinese GP ↗ 16 Charles Leclerc 2026-03-26 01:41
16 Charles Leclerc 2026-03-26 01:41 CET
4 Power Unit Information ↗ 2026-03-26 01:49
2026-03-26 01:49 CET
5 Corrida Director's Competition Notes ↗ 2026-03-26 07:42
2026-03-26 07:42 CET
6 Competition Notes - Circuito Map, Pit Lane Drawing, Emergency Exits Map, Battery Containment Area and Red Zone ↗ 2026-03-26 07:52
2026-03-26 07:52 CET
7 Car Display Procedure ↗ 2026-03-26 09:36
2026-03-26 09:36 CET
8 Competition Visa V2 ↗ 2026-03-26 11:15
2026-03-26 11:15 CET
9 PU elements usados per driver up to now ↗ 2026-03-27 00:07
2026-03-27 00:07 CET
10 Self Scrutineering ↗ 2026-03-27 00:36
2026-03-27 00:36 CET
11 Car Presentation Submissions ↗ 2026-03-27 01:02
2026-03-27 01:02 CET
12 Entry List ↗ 2026-03-27 01:01
2026-03-27 01:01 CET
13 New PU elements for this Competition ↗ 2026-03-27 03:42
2026-03-27 03:42 CET
14 Free Practice 1 Classification ↗ 2026-03-27 04:48
2026-03-27 04:48 CET
15 Summons - Car 23 - Alleged incident with car 11 ↗ 23 Alexander Albon 2026-03-27 04:53
23 Alexander Albon 2026-03-27 04:53 CET
16 Summons - Car 11 - Alleged incident with car 23 ↗ 11 Sergio Pérez 2026-03-27 04:56
11 Sergio Pérez 2026-03-27 04:56 CET
17 Summons - Car 30 - Alleged incident with car 55 ↗ 30 Liam Lawson 2026-03-27 05:01
30 Liam Lawson 2026-03-27 05:01 CET
18 Summons - Car 55 - Alleged incident with car 30 ↗ 55 Carlos Sainz 2026-03-27 05:02
55 Carlos Sainz 2026-03-27 05:02 CET
19 Summons - Car 44 - Alleged incident with car 3 ↗ 44 Lewis Hamilton 2026-03-27 05:03
44 Lewis Hamilton 2026-03-27 05:03 CET
20 Summons - Car 3 - Alleged incident with car 44 ↗ 3 Max Verstappen 2026-03-27 05:06
3 Max Verstappen 2026-03-27 05:06 CET
21 Corrida Director's Competition Notes V2 ↗ 2026-03-27 05:17
2026-03-27 05:17 CET
22 Infringement - Free Practice 1 Deleted Volta Times ↗ 2026-03-27 05:50
2026-03-27 05:50 CET
23 Decision - Car 30 - Alleged incident with car 55 ↗ 30 Liam Lawson 2026-03-27 07:18
30 Liam Lawson 2026-03-27 07:18 CET
24 Timetable V3 ↗ 2026-03-27 07:18
2026-03-27 07:18 CET
25 Decision - Car 23 - Alleged incident with car 11 ↗ 23 Alexander Albon 2026-03-27 07:29
23 Alexander Albon 2026-03-27 07:29 CET
26 Decision - Car 44 - Alleged incident with car 3 ↗ 44 Lewis Hamilton 2026-03-27 07:49
44 Lewis Hamilton 2026-03-27 07:49 CET
27 Summons - Car 43 - Alleged impeding of Car 3 ↗ 43 Franco Colapinto 2026-03-27 07:56
43 Franco Colapinto 2026-03-27 07:56 CET
28 Summons - Car 3 - Alleged impeding by Car 43 ↗ 3 Max Verstappen 2026-03-27 07:56
3 Max Verstappen 2026-03-27 07:56 CET
29 Free Practice 2 Classification ↗ 2026-03-27 08:18
2026-03-27 08:18 CET
30 Infringement - Free Practice 2 Deleted Volta Times ↗ 2026-03-27 08:25
2026-03-27 08:25 CET
31 Infringement - Free Practice 2 Deleted Volta Times (Yellow Bandeiras) ↗ 2026-03-27 08:32
2026-03-27 08:32 CET
32 Corrida Director Notes - SC2 - SC1 Times ↗ 2026-03-27 08:46
2026-03-27 08:46 CET
33 Infringement - Car 43 - Impeding of Car 3 ↗ 43 Franco Colapinto 2026-03-27 09:23
43 Franco Colapinto 2026-03-27 09:23 CET
34 P1 and P2 Scrutineering ↗ 2026-03-27 14:24
2026-03-27 14:24 CET
35 Competition Notes - Pirelli Preview V2 ↗ 2026-03-27 23:55
2026-03-27 23:55 CET
36 Post-Classificação Procedure ↗ 2026-03-28 01:53
2026-03-28 01:53 CET
37 Curfew ↗ 2026-03-28 03:29
2026-03-28 03:29 CET
38 Summons - Car 81 - Alleged impeding of Car 27 ↗ 81 Oscar Piastri 2026-03-28 04:00
81 Oscar Piastri 2026-03-28 04:00 CET
39 Summons - Car 27 - Alleged impeding by Car 81 ↗ 27 Nico Hülkenberg 2026-03-28 04:16
27 Nico Hülkenberg 2026-03-28 04:16 CET
40 New PU elements for this Competition ↗ 2026-03-28 04:16
2026-03-28 04:16 CET
41 Free Practice 3 Classification ↗ 2026-03-28 04:45
2026-03-28 04:45 CET
42 Infringement - Free Practice 3 Deleted Volta Times ↗ 2026-03-28 04:55
2026-03-28 04:55 CET
43 Infringement - Free Practice 3 Deleted Volta Times (Yellow Bandeiras) ↗ 2026-03-28 04:55
2026-03-28 04:55 CET
44 Infringement - Car 81 - Impeding of Car 27 ↗ 81 Oscar Piastri 2026-03-28 05:34
81 Oscar Piastri 2026-03-28 05:34 CET
45 Provisional Classificação Classification ↗ 2026-03-28 08:13
2026-03-28 08:13 CET
47 Decision - Classificação SC2-SC1 Times ↗ 2026-03-28 10:17
2026-03-28 10:17 CET
48 Infringement - Classificação Deleted Volta Times ↗ 2026-03-28 09:15
2026-03-28 09:15 CET
49 P3 and Classificação Scrutineering ↗ 2026-03-28 11:03
2026-03-28 11:03 CET
50 Final Classificação Classification ↗ 2026-03-28 11:13
2026-03-28 11:13 CET
51 Provisional Starting Grid ↗ 2026-03-28 11:15
2026-03-28 11:15 CET
52 Pre-Corrida Procedure ↗ 2026-03-29 03:35
2026-03-29 03:35 CET
53 Post-Corrida Procedure ↗ 2026-03-29 03:38
2026-03-29 03:38 CET
54 Parts and Parameters been replaced and or changed during Parc Fermé ↗ 2026-03-29 05:52
2026-03-29 05:52 CET
55 Final Starting Grid ↗ 2026-03-29 06:00
2026-03-29 06:00 CET
56 Provisional Corrida Classification ↗ 2026-03-29 08:54
2026-03-29 08:54 CET
57 Infringement - Corrida Deleted Volta Times ↗ 2026-03-29 09:00
2026-03-29 09:00 CET
58 Corrida Scrutineering ↗ 2026-03-29 12:07
2026-03-29 12:07 CET
59 Final Corrida Classification ↗ 2026-03-29 12:10
2026-03-29 12:10 CET
60 Campeonato Pontos ↗ 2026-03-29 12:16
2026-03-29 12:16 CET
FIA official decisions and documents (fia.com) · PDF original PDF links
Record Basis · Calculation basis
Corrida order is the final classification(post-race penalties applied) · a qualificação session data 2003+ · lap times 1996+ · pit stops 2012+ (pit-lane transit, not stationary time) · Abandono = Finished(Finished·+N Voltas) non-Finished statuses
Fontes de dados: Jolpica-F1 (Ergast compatible API) · weather·Direção de prova OpenF1 (2023+) · Last fetched: 2026-09-05 20:50